[[{"header":{"parameterUnit":"m.s-1","parameterCategory":1,"la1":30.2991,"la2":30.254,"lo1":-89.0895,"lo2":-89.0444,"dy":0.0017,"dx":0.0017,"nx":28,"ny":28,"refTime":"2025-08-21T09:00:00:Z","depth":0,"parameterNumber":2,"parameterNumberName":"U-component_of_WINDS"},"data":[0,0,0,0,0,0,0,0,0,0,0,0,0,0,0,0,0,0,0,0,0,0,0,0,0,0,0,0,0,0,0,0,0,0,0,0,0,0,0,0,0,0,0,0,0,0,0,0,0,0,0,0,0,0,0,0,0,0,1.308,1.3084,0,1.3479,1.3484,1.3488,1.3649,1.3648,1.3647,1.3646,1.4058,1.407,1.4081,0,0,0,0,0,0,0,0,0,0,0,0,0,1.2459,1.2469,1.308,1.3085,1.309,1.3478,1.3484,1.3489,1.3649,1.3648,1.3647,1.3646,1.4054,1.4068,1.4082,0,0,0,0,0,0,0,0,0,0,0,0,0,1.278,1.2473,1.3079,1.3216,1.3232,1.3477,1.3484,1.3491,1.3649,1.3648,1.3646,1.3645,1.405,1.4067,1.4084,1.4223,0,0,1.4139,1.4146,0,0,0,0,0,0,0,0,1.2761,1.2803,1.3191,1.3207,1.3226,1.3513,1.3416,1.3736,1.365,1.3491,1.3646,1.3644,1.3878,1.391,1.3988,1.4242,1.426,1.414,1.4151,1.4159,1.4164,0,0,0,0,0,0,0,1.2739,1.2786,1.3238,1.3196,1.3218,1.3259,1.3303,1.3478,1.3688,1.3505,1.3517,1.3562,1.3887,1.397,1.3999,1.4266,1.414,1.4156,1.4167,1.4174,1.4655,1.4657,0,0,0,0,0,0,1.2694,1.2767,1.3225,1.325,1.2985,1.3271,1.332,1.3422,1.3686,1.3725,1.3563,1.3568,1.3941,1.3978,1.4014,1.4195,1.4159,1.4175,1.4186,1.4653,1.4655,1.4658,0,0,0,0,0,0,1.268,1.2733,1.3209,1.3012,1.3076,1.3283,1.3396,1.3431,1.3514,1.373,1.3769,1.3609,1.3941,1.3989,1.417,1.4211,1.4183,1.42,1.465,1.4654,1.4656,1.4556,0,0,0,0,0,0,1.2661,1.2727,1.2781,1.3012,1.3085,1.3357,1.3399,1.344,1.3544,1.3555,1.3784,1.3821,1.3944,1.4142,1.4187,1.4235,1.4213,1.4648,1.4652,1.4655,1.4556,1.4555,1.4554,0,0,0,0,0,1.2638,1.2738,1.2783,1.2838,1.3158,1.3359,1.3402,1.354,1.3546,1.3604,1.3742,1.3813,1.4198,1.4159,1.4212,1.4265,1.4646,1.4651,1.4655,1.4557,1.4555,1.4554,0,0,0,0,0,0,1.2509,1.2771,1.2824,1.3001,1.3156,1.3386,1.3462,1.3534,1.3692,1.3695,1.3861,1.3912,1.4079,1.419,1.4142,1.4413,1.4428,1.4443,1.4335,1.4335,1.4334,1.4305,1.4228,0,0,0,0,0,1.25,1.2641,1.2863,1.2997,1.3073,1.3253,1.3346,1.3439,1.3608,1.3675,1.3827,1.3988,1.4146,1.4247,1.4404,1.4572,1.4625,1.4635,1.4633,1.4631,1.4644,1.4742,1.4749,1.4673,1.4673,1.4673,0,0,1.2485,1.2646,1.2725,1.2975,1.3107,1.325,1.3308,1.3457,1.3565,1.3698,1.3878,1.3995,1.4186,1.4361,1.4446,1.4459,1.4676,1.4638,1.4634,1.4648,1.4747,1.4754,1.476,1.4676,1.4676,1.4675,0,0,1.2531,1.2666,1.2793,1.2923,1.3121,1.324,1.327,1.3489,1.3571,1.3754,1.3857,1.3988,1.4256,1.4388,1.449,1.4583,1.4655,1.463,1.4624,1.4718,1.4724,1.473,1.4765,1.4775,1.464,1.464,1.464,0,1.2488,1.2707,1.285,1.2993,1.3101,1.3225,1.3356,1.3475,1.3714,1.3786,1.3796,1.4135,1.4272,1.4481,1.4503,1.4581,1.4622,1.4606,1.4711,1.4719,1.4727,1.4762,1.4774,1.4636,1.4636,1.4637,1.4637,0,1.2644,1.2794,1.2873,1.31,1.3216,1.3352,1.3516,1.3617,1.3698,1.3816,1.4001,1.417,1.4363,1.4419,1.4501,1.4639,1.4641,1.4679,1.4697,1.4727,1.4763,1.4777,1.463,1.4631,1.4633,1.4634,0,0,1.2623,1.2924,1.2951,1.3055,1.3281,1.3401,1.3542,1.373,1.3813,1.3973,1.4097,1.4319,1.4356,1.4471,1.4569,1.4651,1.4715,1.468,1.4687,1.4682,1.4878,1.4849,1.4862,1.4763,1.4766,1.4768,1.4863,0,1.27,1.2958,1.309,1.3292,1.3433,1.3552,1.3675,1.3828,1.3941,1.4078,1.4204,1.4359,1.4395,1.4465,1.4551,1.4688,1.4757,1.4683,1.4881,1.4886,1.4831,1.4881,1.4852,1.4933,1.4877,1.488,1.4882,0,1.2826,1.2983,1.3198,1.3407,1.3472,1.358,1.3762,1.3891,1.4066,1.4143,1.427,1.4366,1.452,1.4524,1.4739,1.4686,1.4775,1.4854,1.486,1.4886,1.4887,1.4909,1.4962,1.4974,1.4905,1.4903,1.4901,0,1.279,1.3055,1.3219,1.3304,1.3551,1.3625,1.3732,1.3905,1.4009,1.4169,1.4238,1.4413,1.4509,1.4643,1.4783,1.4773,1.4985,1.5001,1.5055,1.5051,1.5096,1.5092,1.5165,1.5149,1.5149,1.5149,1.5148,0,1.2864,1.2991,1.3206,1.3306,1.3452,1.3602,1.3743,1.3859,1.4012,1.4138,1.4251,1.4367,1.4544,1.4683,1.4793,1.4955,1.4997,1.5065,1.5093,1.5056,1.5047,1.5118,1.5116,1.5152,1.5151,1.5151,1.515,0,1.285,1.2998,1.3184,1.3402,1.346,1.3558,1.3746,1.3849,1.3966,1.4124,1.417,1.4355,1.4524,1.4676,1.49,1.4974,1.5139,1.5174,1.508,1.5096,1.5141,1.5135,1.5264,1.5289,1.5253,1.5253,1.5253,0,1.2888,1.2989,1.3217,1.3309,1.3413,1.3559,1.3666,1.3817,1.3923,1.4129,1.4206,1.4382,1.4532,1.4795,1.4951,1.5122,1.5163,1.5196,1.519,1.5149,1.5166,1.5158,1.517,1.5195,1.5195,1.5195,1.5194,0,1.2942,1.3009,1.3158,1.3331,1.3454,1.3599,1.3747,1.3816,1.3995,1.4108,1.4281,1.4396,1.4623,1.4797,1.4986,1.5097,1.5176,1.5194,1.5216,1.5181,1.5122,1.5156,1.5077,1.5192,1.5192,1.5192,1.5192,1.5192,1.2957,1.3052,1.3227,1.3388,1.3515,1.365,1.3757,1.3887,1.4033,1.4229,1.4309,1.4485,1.4657,1.4918,1.5029,1.5169,1.5184,1.5215,1.5224,1.523,1.5223,1.5097,1.5203,1.5204,1.5204,1.5204,1.5204,0,1.3017,1.3135,1.3281,1.3484,1.3611,1.3671,1.3838,1.394,1.4093,1.4246,1.4389,1.4587,1.4756,1.4923,1.5101,1.5181,1.5222,1.5223,1.522,1.5244,1.5199,1.5163,1.5187,1.5187,1.5187,1.5187,1.5187,1.5187,1.3064,1.3227,1.3315,1.3543,1.3661,1.3832,1.3922,1.4048,1.4171,1.4386,1.4526,1.4634,1.4793,1.4983,1.5141,1.5186,1.5247,1.5238,1.5293,1.5248,1.5247,1.5247,1.5214,1.5249,1.525,1.5328,1.5328,1.5329]},{"header":{"parameterUnit":"m.s-1","parameterCategory":1,"la1":30.2991,"la2":30.254,"lo1":-89.0895,"lo2":-89.0444,"dy":0.0017,"dx":0.0017,"nx":28,"ny":28,"refTime":"2025-08-21T09:00:00:Z","depth":0,"parameterNumber":3,"parameterNumberName":"V-component_of_WINDS"},"data":[0,0,0,0,0,0,0,0,0,0,0,0,0,0,0,0,0,0,0,0,0,0,0,0,0,0,0,0,0,0,0,0,0,0,0,0,0,0,0,0,0,0,0,0,0,0,0,0,0,0,0,0,0,0,0,0,0,0,-1.4821,-1.4819,0,-1.47,-1.4699,-1.4698,-1.4626,-1.4626,-1.4625,-1.4625,-1.4498,-1.4495,-1.4492,0,0,0,0,0,0,0,0,0,0,0,0,0,-1.4987,-1.4984,-1.4821,-1.4819,-1.4818,-1.4701,-1.4699,-1.4697,-1.4626,-1.4626,-1.4625,-1.4625,-1.4499,-1.4495,-1.4491,0,0,0,0,0,0,0,0,0,0,0,0,0,-1.4895,-1.4983,-1.4821,-1.4768,-1.4762,-1.4701,-1.4699,-1.4697,-1.4626,-1.4626,-1.4625,-1.4625,-1.45,-1.4495,-1.4491,-1.4472,0,0,-1.4477,-1.4475,0,0,0,0,0,0,0,0,-1.4901,-1.4889,-1.4777,-1.4772,-1.4765,-1.4678,-1.4711,-1.4621,-1.4626,-1.4678,-1.4625,-1.4624,-1.4558,-1.4548,-1.4527,-1.4466,-1.446,-1.4476,-1.4473,-1.4471,-1.447,0,0,0,0,0,0,0,-1.4907,-1.4894,-1.4773,-1.4776,-1.4768,-1.475,-1.4736,-1.4693,-1.4622,-1.4673,-1.4668,-1.4655,-1.4554,-1.4531,-1.4523,-1.4458,-1.4476,-1.4472,-1.4469,-1.4468,-1.4376,-1.4377,0,0,0,0,0,0,-1.4922,-1.49,-1.4777,-1.4769,-1.4833,-1.4747,-1.4732,-1.4706,-1.4622,-1.4609,-1.4655,-1.4652,-1.4539,-1.4529,-1.4518,-1.449,-1.4471,-1.4467,-1.4464,-1.4376,-1.4377,-1.4377,0,0,0,0,0,0,-1.4926,-1.4912,-1.4782,-1.4833,-1.4815,-1.4745,-1.4716,-1.4704,-1.4681,-1.4608,-1.4595,-1.4645,-1.4539,-1.4525,-1.4484,-1.4485,-1.4465,-1.4461,-1.4376,-1.4376,-1.4377,-1.4434,0,0,0,0,0,0,-1.4931,-1.4914,-1.4906,-1.4833,-1.4813,-1.475,-1.4716,-1.4702,-1.4674,-1.4668,-1.4595,-1.4583,-1.4537,-1.4492,-1.448,-1.4478,-1.4457,-1.4375,-1.4376,-1.4377,-1.4431,-1.4436,-1.444,0,0,0,0,0,-1.4937,-1.4925,-1.4906,-1.4891,-1.4802,-1.475,-1.4738,-1.4687,-1.4674,-1.4665,-1.4619,-1.4585,-1.4488,-1.4488,-1.4474,-1.4471,-1.4375,-1.4376,-1.4377,-1.4429,-1.4435,-1.444,0,0,0,0,0,0,-1.4997,-1.4915,-1.4892,-1.4857,-1.4812,-1.4738,-1.4725,-1.4695,-1.4651,-1.4647,-1.4585,-1.4569,-1.4535,-1.4499,-1.4501,-1.4448,-1.4427,-1.4426,-1.4472,-1.4477,-1.4482,-1.449,-1.4453,0,0,0,0,0,-1.5007,-1.4973,-1.4903,-1.4878,-1.4857,-1.4796,-1.4771,-1.4737,-1.4686,-1.4666,-1.4617,-1.4568,-1.4527,-1.45,-1.4458,-1.4427,-1.441,-1.4418,-1.4423,-1.4427,-1.4425,-1.4406,-1.4409,-1.438,-1.438,-1.438,0,0,-1.5025,-1.4976,-1.4958,-1.4889,-1.485,-1.4816,-1.478,-1.4744,-1.4718,-1.466,-1.4619,-1.4582,-1.4524,-1.4488,-1.447,-1.4457,-1.443,-1.4428,-1.4431,-1.4427,-1.4407,-1.441,-1.4412,-1.438,-1.438,-1.438,0,0,-1.5041,-1.5001,-1.4977,-1.4939,-1.4881,-1.4841,-1.4835,-1.4767,-1.4741,-1.4699,-1.4655,-1.4623,-1.4553,-1.4514,-1.4484,-1.449,-1.4457,-1.4478,-1.4499,-1.4482,-1.4484,-1.4486,-1.4487,-1.4488,-1.4477,-1.4477,-1.4477,0,-1.507,-1.5018,-1.4967,-1.4935,-1.4906,-1.4856,-1.483,-1.4795,-1.4726,-1.4707,-1.4695,-1.4607,-1.4564,-1.4518,-1.452,-1.4499,-1.449,-1.4484,-1.4488,-1.4489,-1.449,-1.449,-1.4491,-1.448,-1.448,-1.4479,-1.4479,0,-1.5057,-1.5022,-1.5009,-1.4945,-1.4915,-1.4886,-1.4831,-1.4807,-1.4776,-1.4737,-1.4696,-1.4644,-1.459,-1.4578,-1.4546,-1.4528,-1.4522,-1.45,-1.4477,-1.4497,-1.4496,-1.4495,-1.4484,-1.4483,-1.4482,-1.4481,0,0,-1.5103,-1.5015,-1.5011,-1.4982,-1.4916,-1.4887,-1.4857,-1.4806,-1.4786,-1.4741,-1.4714,-1.4658,-1.4637,-1.4605,-1.4569,-1.4554,-1.4561,-1.4533,-1.4531,-1.4539,-1.4537,-1.4553,-1.4554,-1.454,-1.454,-1.454,-1.4542,0,-1.5108,-1.5052,-1.5007,-1.4967,-1.4934,-1.4887,-1.486,-1.4817,-1.4781,-1.4747,-1.4707,-1.4667,-1.4644,-1.4624,-1.4608,-1.4564,-1.4559,-1.4563,-1.4512,-1.4511,-1.4526,-1.4553,-1.4569,-1.4573,-1.4541,-1.4541,-1.4541,0,-1.5105,-1.5064,-1.5021,-1.496,-1.4945,-1.4922,-1.4873,-1.4841,-1.4792,-1.4766,-1.4732,-1.4695,-1.4661,-1.4645,-1.4597,-1.46,-1.4578,-1.4553,-1.4552,-1.4543,-1.4525,-1.4543,-1.4573,-1.4573,-1.454,-1.454,-1.454,0,-1.5142,-1.5076,-1.5042,-1.5019,-1.4947,-1.4932,-1.4901,-1.4851,-1.4824,-1.4782,-1.4764,-1.4718,-1.4692,-1.4657,-1.4609,-1.4602,-1.4566,-1.4545,-1.4543,-1.4544,-1.4535,-1.4535,-1.4559,-1.4525,-1.4525,-1.4525,-1.4525,0,-1.515,-1.5126,-1.5058,-1.5036,-1.5008,-1.4957,-1.493,-1.4895,-1.4852,-1.4823,-1.478,-1.4754,-1.4693,-1.466,-1.4623,-1.4588,-1.4577,-1.4555,-1.4545,-1.4557,-1.456,-1.4539,-1.4537,-1.4525,-1.4525,-1.4525,-1.4525,0,-1.5185,-1.5138,-1.5098,-1.5035,-1.5019,-1.5,-1.4945,-1.4923,-1.4887,-1.485,-1.4839,-1.4781,-1.4739,-1.4689,-1.4631,-1.4606,-1.4575,-1.4561,-1.4592,-1.4585,-1.4585,-1.4585,-1.4594,-1.4593,-1.4562,-1.4562,-1.4562,0,-1.5192,-1.5172,-1.5108,-1.5086,-1.5057,-1.5023,-1.4996,-1.4946,-1.492,-1.4863,-1.4848,-1.4804,-1.4765,-1.4701,-1.4653,-1.4609,-1.4592,-1.4599,-1.4585,-1.4599,-1.459,-1.4591,-1.4589,-1.4601,-1.4602,-1.4603,-1.4603,0,-1.521,-1.5188,-1.5152,-1.5108,-1.5078,-1.5041,-1.5001,-1.4986,-1.4928,-1.4901,-1.4859,-1.483,-1.4772,-1.4728,-1.4679,-1.4646,-1.4614,-1.4609,-1.4605,-1.4616,-1.4634,-1.4623,-1.4599,-1.4607,-1.4607,-1.4607,-1.4606,-1.4606,-1.5229,-1.521,-1.5162,-1.5123,-1.5089,-1.5054,-1.5031,-1.4992,-1.4957,-1.4906,-1.488,-1.4838,-1.479,-1.472,-1.469,-1.4656,-1.4645,-1.4641,-1.4639,-1.4638,-1.4641,-1.4643,-1.4647,-1.4647,-1.4647,-1.4647,-1.4647,0,-1.5243,-1.5211,-1.5176,-1.5124,-1.5094,-1.507,-1.5026,-1.5002,-1.4966,-1.4925,-1.4889,-1.4841,-1.48,-1.475,-1.4705,-1.4688,-1.4672,-1.4677,-1.4677,-1.467,-1.4655,-1.4661,-1.4691,-1.4691,-1.4691,-1.4691,-1.4691,-1.4691,-1.5247,-1.5213,-1.5187,-1.5136,-1.5103,-1.5063,-1.504,-1.5008,-1.4975,-1.4924,-1.4889,-1.4858,-1.4813,-1.4765,-1.4726,-1.4712,-1.4697,-1.4706,-1.4688,-1.4674,-1.4671,-1.4667,-1.4673,-1.4704,-1.4704,-1.4705,-1.4705,-1.4705]}]]